Showing default

TJS-17, 63524

Orbit data source: Space-Track

TJS-17, 63524 is a payload satellite owned by PLA SSF (CN) in GEO that was launched on Thu, 10 Apr 2025 UTC via a CHANG ZHENG 3B launch vehicle from the Xichang Space Center, China (XSC). Payload-class satellites include a variety of spacecraft equipped with specific instruments for various scientific and technological missions. These include communications satellites like Starlink; space stations such as the ISS; scientific satellites like the Hubble; Earth observation satellites from companies like Planet Labs, Umbra, and HawkEye 360; GPS; miniature CubeSats for education and research; and military/defense satellites.

Not visible in the next 10 days
Identifier
63524, 2025-073A
Orbit
GEO
Last TLE update
1 day ago
Origin
Manufacturer
SISE
Mission
Operational spacecraft
Bus & Motor
FY-4?, LAE
Mass
~5,000 kg wet, ~2,500 kg dry
Launch date (UTC)
2025-04-10 (3 weeks ago)
Launch vehicle
CHANG ZHENG 3B
Launch site
Xichang Space Center, China (XSC)
Object type
Payload
Rocket body
Debris
Shape & HBR
Unknown
Radar Cross Section
Large (>1 m²)

Expand to show TLE details & history

TLE from 1 day ago
0 TJS-17
1 63524U 25073A   25118.96606806 -.00000177  00000-0  00000-0 0  9991
2 63524   0.0338 335.6568 0000423 101.3735 280.6961  1.00271110   130
Epoch: 2025-04-28T23:11Z
Definitive object data (Epoch: 2025-04-28T23:11:08.28Z)
Latitude
0.03027°
Longitude
152.75999°
Altitude
35,785.93 km
Speed
3.075 km/s
True Right ascension
23h 50m 52s
True Declination
0° 01' 49"
Sunlit
Object was in daylight at TLE epoch
Visualization TLE readout
Latitude
-0.02816°
Longitude
-28.67935°
Altitude
35,786.645 km
Speed
3.075 km/s
Apparent Right ascension
11h 19m 47s
Apparent Declination
-5° 22' 43"
Sunlit
Object is in daylight
Visualization observer readout
Local Sidereal Time
18:33:33
Azimuth
277.847° WNW
Elevation
-17.558°
Doppler factor
1
Orbital elements
Apogee altitude
35,789.638 km
Perigee altitude
35,786.071 km
Semi-major axis
42,165.992 km
Eccentricity
0.0000423
Inclination
0.0338°
RAAN
335.6568°
Arg. of periapsis
101.3735°
True anomaly
280.69134°
Mean anomaly
280.6961°
Eccentric anomaly
280.69372°
Mean motion
0.25067 °/min
BSTAR
Unknown
Orbital period
1436.16 mins
Loading historical data...
63524 neighbors
Loading maneuver chart data...
Loading SW <> Apogee altitude chart data...
Loading historical data...
Loading historical data...
Loading historical data...
Loading historical data...
Loading historical data...
Loading historical data...
Loading historical data...
Other satellites on launch #73 in the year 2025 (2025-04-10 UTC)

TJS-17 Visibility forecast

Observer location: undefined°, undefined°

TJS-17 is not visible in the next 10 days
Span
Click to sort rows by Start time (UTC) header in descending order
Start Az.
Max El. time (UTC)
Max El. Az.
Max El.
End time (UTC)
End Az.
|